Find Starlink 36454

NORAD ID: 67470 Int'l Des: 2026-008 Owner: SPXS Country: US Constellation: starlink operational
LEOCIRCULAR

Live Position

Loading 3D Globe...

About Starlink 36454

Description loading...

Upcoming Passes

Passes for default location (London). Set your location on the main map for personalized predictions.

Altitude History

Loading altitude history...

Two-Line Element Set

1 67470U 26008AB 26111.97106827 .00016750 00000-0 61622-3 0 9990
2 67470 43.0036 320.5980 0001665 259.7297 100.3367 15.27612046 16199
Epoch: Apr 21, 2026 • Age: 18 hours

Current Status

Altitude 484.3 km
Velocity 7.62 km/s
Sub-Earth Point -11.06°S, 36.25°E
Launch Date Jan 14, 2026
Age 0.2 years
Type internet

Technical Details

Classification Payload
Mass 575.00 kg
Dry Mass 530.00 kg
Total Mass 575.00 kg
Length 0.30 m
Diameter 4.10 m
Span 29.00 m
Shape Box + pan
Manufacturer SPXS
Bus Type Starlink V2MO
Phase Status In Orbit
Owner/State SPXS/US

Most Searched